Погода в Перелесках

Россия / Ярославская область     56°52′11″N   39°03′26″E
темп.,
°C
ветер,
м/с
пор.,
м/с
влажн.,
%
обл.,
%
осадки,
мм/ч
давл.,
гПа
погр.,
м
28 июля, ср
ср2800:00+16в227656 0.0 101814
03:00+17ю2271100 0.1 101737
06:00+17юв23795 0.0 101769
09:00+22юв3461100 0.0 1016520
12:00+27ю444297 0.0 10141795
15:00+26ю5641100 0.0 10131110
18:00+19юз71188100 1.8 1013445
21:00+17ю3695100 7.0 1011175
29 июля, чт
чт2900:00+16ююв3695100 0.1 1010233
03:00+15юв3897100 0.9 1008457
06:00+16ююв2598100 1.1 1006338
09:00+16з2495100 1.1 1006401
12:00+20сз347956 0.1 1006812
15:00+26зсз3747100 0.1 10041961
18:00+24зюз376156 0.0 1004434
21:00+19зюз38776 0.0 1004157
30 июля, пт
пт3000:00+17зюз3589100 0.0 100581
03:00+16зюз3688100 0.0 1005105
06:00+17зюз3688100 0.1 1005189
09:00+21зюз4570100 0.1 1005492
12:00+20юз4690100 1.5 1005309
15:00+23юз44701 3.9 1004616
18:00+22юз477754 1.1 1004241
21:00+19з357790 1.3 100485
31 июля, сб
сб3100:00+17з3376100 0.0 100452
03:00+15зюз3781100 0.0 1004103
06:00+17зюз3107282 0.0 1004320
09:00+21зюз611594 0.1 10041127
12:00+25зюз912376 0.1 10032424
15:00+25зюз8113999 0.1 10042532
18:00+23зюз612505 0.0 10052164
21:00+18юз386799 0.0 1006158
1 августа, вс
вс100:00+15зюз3781100 0.0 1007108
03:00+16юз368099 0.0 100799
06:00+17ю3874100 0.0 1007198
09:00+18юз1373100 0.1 100695
12:00+26ю81250100 0.4 10041428
15:00+20зюз61585100 0.8 1004705
18:00+23з610705 0.0 10051155
21:00+17зюз2292100 0.0 100723